Date String (YYYY-MM-DD hh:mm:ss) UTC,Instrument flags,Ambient pressure (hPa),Sample flow (lpm),Bypass flow (lpm),Sample temperature (°C),Ambient temperature (°C),ASC tube jacket temperature (°C),LED temperature (°C),Box temperature (°C),Sample RH (%),Span deviation,Mass concentration (μg/m³),Mass concentration (μg/m³),Mass concentration (μg/m³)
DateTimeUTC,F1_M11,P_M11,Q1_M11,Q2_M11,T1_M11,T2_M11,T3_M11,T4_M11,T5_M11,U1_M11,ZSPAN_M11,X2_M11,X0_M11,X1_M11
2022-08-01 06:00:00,,0829.8,5.00,0.00,29.5,28.2,00.0,38.3,31.4,26.7,0000.0,0004.68,0007.52,0004.47
2022-08-01 06:01:00,,0829.8,5.00,0.00,29.5,28.3,00.0,38.3,31.5,26.7,0000.0,0004.68,0007.51,0004.47
2022-08-01 06:02:00,,0829.8,5.00,0.00,29.6,28.4,00.0,38.3,31.5,26.8,0000.0,0004.67,0007.48,0004.47
2022-08-01 06:03:00,,0829.8,5.00,0.00,29.6,28.5,00.0,38.3,31.6,26.9,0000.0,0004.66,0007.45,0004.45
2022-08-01 06:04:00,,0829.8,5.01,0.00,29.6,28.6,00.0,38.4,31.6,26.8,0000.0,0004.64,0007.55,0004.44
2022-08-01 06:05:00,,0829.8,4.99,0.00,29.7,28.7,00.0,38.4,31.6,26.6,0000.0,0004.64,0007.83,0004.44
2022-08-01 06:06:00,,0829.8,5.01,0.00,29.7,28.7,00.0,38.4,31.7,26.5,0000.0,0004.67,0007.94,0004.44
2022-08-01 06:07:00,,0829.7,4.99,0.00,29.7,28.8,00.0,38.4,31.7,26.4,0000.0,0004.68,0007.93,0004.44
2022-08-01 06:08:00,,0829.8,5.00,0.00,29.7,28.5,00.0,38.4,31.7,26.3,0000.0,0004.66,0007.82,0004.44
2022-08-01 06:09:00,,0829.8,5.02,0.00,29.7,27.8,00.0,38.4,31.5,26.3,0000.0,0004.66,0007.66,0004.44
2022-08-01 06:10:00,,0829.7,4.99,0.00,29.7,27.6,00.0,38.4,31.4,26.4,0000.0,0004.67,0007.90,0004.44
2022-08-01 06:11:00,,0829.8,5.01,0.00,29.6,27.5,00.0,38.4,31.3,26.3,0000.0,0004.68,0007.97,0004.45
2022-08-01 06:12:00,,0829.8,4.99,0.00,29.5,27.6,00.0,38.4,31.3,26.2,0000.0,0004.66,0007.93,0004.44
2022-08-01 06:13:00,,0829.8,5.01,0.00,29.5,27.7,00.0,38.3,31.4,25.6,0000.0,0004.67,0007.96,0004.44
2022-08-01 06:14:00,,0829.8,5.00,0.00,29.5,27.9,00.0,38.3,31.4,24.9,0000.0,0004.68,0007.99,0004.46
2022-08-01 06:15:00,,0829.8,5.00,0.00,29.5,28.0,00.0,38.3,31.4,25.1,0000.0,0004.69,0007.90,0004.47
2022-08-01 06:16:00,,0829.8,5.00,0.00,29.5,28.1,00.0,38.4,31.4,25.7,0000.0,0004.68,0007.73,0004.48
2022-08-01 06:17:00,,0829.8,5.00,0.00,29.6,28.2,00.0,38.4,31.5,25.9,0000.0,0004.65,0007.56,0004.49
2022-08-01 06:18:00,,0829.8,5.00,0.00,29.6,28.3,00.0,38.4,31.5,25.9,0000.0,0004.62,0007.46,0004.48
2022-08-01 06:19:00,,0829.8,5.00,0.00,29.6,28.4,00.0,38.4,31.6,25.3,0000.0,0004.62,0007.47,0004.47
2022-08-01 06:20:00,,0829.8,5.01,0.00,29.6,28.5,00.0,38.4,31.6,25.0,0000.0,0004.62,0007.52,0004.47
2022-08-01 06:21:00,,0829.8,4.99,0.00,29.7,28.6,00.0,38.4,31.6,25.0,0000.0,0004.62,0006.69,0004.46
2022-08-01 06:22:00,,0829.9,5.00,0.00,29.7,28.7,00.0,38.4,31.7,25.3,0000.0,0004.61,0006.52,0004.47
2022-08-01 06:23:00,,0829.8,5.00,0.00,29.7,28.7,00.0,38.5,31.7,25.6,0000.0,0004.60,0006.52,0004.45
2022-08-01 06:24:00,,0829.8,5.00,0.00,29.7,28.0,00.0,38.4,31.5,25.6,0000.0,0004.59,0006.71,0004.43
2022-08-01 06:25:00,,0829.8,5.00,0.00,29.7,27.5,00.0,38.4,31.4,24.9,0000.0,0004.54,0006.51,0004.40
2022-08-01 06:26:00,,0829.8,4.99,0.00,29.6,27.4,00.0,38.4,31.3,24.7,0000.0,0004.55,0006.71,0004.40
2022-08-01 06:27:00,,0829.8,5.01,0.00,29.5,27.5,00.0,38.3,31.3,25.1,0000.0,0004.54,0006.51,0004.38
2022-08-01 06:28:00,,0829.8,5.00,0.00,29.5,27.6,00.0,38.3,31.3,25.5,0000.0,0004.53,0006.58,0004.36
2022-08-01 06:29:00,,0829.7,5.00,0.00,29.5,27.7,00.0,38.3,31.3,25.8,0000.0,0004.53,0006.60,0004.36
2022-08-01 06:30:00,,0829.7,5.00,0.00,29.5,27.9,00.0,38.3,31.3,25.8,0000.0,0004.52,0006.60,0004.35
2022-08-01 06:31:00,,0829.7,4.99,0.00,29.5,28.0,00.0,38.3,31.4,25.6,0000.0,0004.51,0006.66,0004.33
2022-08-01 06:32:00,,0829.6,5.00,0.00,29.5,28.1,00.0,38.3,31.4,25.3,0000.0,0004.49,0006.48,0004.31
2022-08-01 06:33:00,,0829.7,5.01,0.00,29.5,28.2,00.0,38.3,31.4,25.3,0000.0,0004.46,0006.45,0004.29
2022-08-01 06:34:00,,0829.6,4.99,0.00,29.5,28.3,00.0,38.3,31.5,25.5,0000.0,0004.45,0006.45,0004.27
2022-08-01 06:35:00,,0829.7,5.01,0.00,29.6,28.4,00.0,38.4,31.5,25.7,0000.0,0004.45,0006.32,0004.27
2022-08-01 06:36:00,,0829.7,4.99,0.00,29.6,28.5,00.0,38.4,31.6,26.1,0000.0,0004.46,0006.36,0004.27
2022-08-01 06:37:00,,0829.6,5.00,0.00,29.6,28.5,00.0,38.4,31.6,26.0,0000.0,0004.43,0006.18,0004.25
2022-08-01 06:38:00,,0829.6,5.01,0.00,29.6,28.6,00.0,38.4,31.6,25.6,0000.0,0004.39,0005.94,0004.23
2022-08-01 06:39:00,,0829.5,4.99,0.00,29.7,28.7,00.0,38.4,31.6,25.5,0000.0,0004.40,0005.91,0004.24
2022-08-01 06:40:00,,0829.5,5.00,0.00,29.7,28.7,00.0,38.4,31.7,25.3,0000.0,0004.42,0006.05,0004.24
2022-08-01 06:41:00,,0829.5,5.00,0.00,29.7,28.5,00.0,38.4,31.6,25.1,0000.0,0004.45,0006.26,0004.25
2022-08-01 06:42:00,,0829.5,4.99,0.00,29.7,27.8,00.0,38.4,31.5,25.2,0000.0,0004.47,0006.20,0004.27
2022-08-01 06:43:00,,0829.5,5.02,0.00,29.6,27.4,00.0,38.4,31.4,25.3,0000.0,0004.48,0006.21,0004.29
2022-08-01 06:44:00,,0829.5,4.99,0.00,29.6,27.4,00.0,38.4,31.3,25.6,0000.0,0004.52,0006.30,0004.31
2022-08-01 06:45:00,,0829.5,4.99,0.00,29.5,27.5,00.0,38.3,31.3,26.0,0000.0,0004.53,0006.34,0004.33
2022-08-01 06:46:00,,0829.6,5.02,0.00,29.5,27.6,00.0,38.3,31.3,25.9,0000.0,0004.54,0006.37,0004.33
2022-08-01 06:47:00,,0829.6,5.00,0.00,29.5,27.7,00.0,38.3,31.3,25.7,0000.0,0004.54,0006.33,0004.33
2022-08-01 06:48:00,,0829.6,5.00,0.00,29.5,27.9,00.0,38.3,31.4,25.4,0000.0,0004.55,0006.31,0004.34
2022-08-01 06:49:00,,0829.5,4.99,0.00,29.5,28.0,00.0,38.3,31.4,25.1,0000.0,0004.59,0006.55,0004.35
2022-08-01 06:50:00,,0829.5,5.00,0.00,29.5,28.1,00.0,38.3,31.4,24.7,0000.0,0004.60,0006.67,0004.36
2022-08-01 06:51:00,,0829.5,5.00,0.00,29.5,28.2,00.0,38.3,31.4,25.0,0000.0,0004.60,0006.61,0004.37
2022-08-01 06:52:00,,0829.5,5.01,0.00,29.5,28.3,00.0,38.3,31.5,24.7,0000.0,0004.57,0006.40,0004.35
2022-08-01 06:53:00,,0829.5,4.99,0.00,29.6,28.4,00.0,38.4,31.5,24.6,0000.0,0004.54,0006.31,0004.34
2022-08-01 06:54:00,,0829.5,5.00,0.00,29.6,28.5,00.0,38.4,31.5,24.8,0000.0,0004.52,0006.30,0004.32
2022-08-01 06:55:00,,0829.5,5.00,0.00,29.6,28.5,00.0,38.4,31.5,24.4,0000.0,0004.51,0006.27,0004.31
2022-08-01 06:56:00,,0829.5,5.00,0.00,29.6,28.6,00.0,38.4,31.6,24.7,0000.0,0004.52,0006.36,0004.31
2022-08-01 06:57:00,,0829.5,5.00,0.00,29.7,28.7,00.0,38.4,31.6,24.2,0000.0,0004.52,0006.54,0004.31
2022-08-01 06:58:00,,0829.5,4.99,0.00,29.7,28.7,00.0,38.4,31.7,24.0,0000.0,0004.53,0006.68,0004.31
2022-08-01 06:59:00,,0829.5,5.01,0.00,29.7,28.7,00.0,38.5,31.7,23.9,0000.0,0004.57,0006.88,0004.32
